Overview Statistics Trail Chart Weather Telemetry Raw packets
 

This is the latest recevied weather packets stored in our database for station/object ZS1OSS-13. If no packets are shown the sender has not sent any weather packets the latest 10 day(s).

<< 107 108 109 110 111 112 >>
Time Temp. Humidity Pressure Rain* Wind** Luminosity Snow
1787733604 20.56° C 59% 1018.7 hPa 0 mm - 486 W/m² -
1787733300 20.56° C 59% 1018.7 hPa 0 mm - 485 W/m² -
1787732995 20.56° C 59% 1018.8 hPa 0 mm - 439 W/m² -
1787732690 20° C 60% 1018.7 hPa 0 mm - 408 W/m² -
1787732385 20.56° C 59% 1018.5 hPa 0 mm - 407 W/m² -
1787732085 20.56° C 59% 1018.6 hPa 0 mm - 395 W/m² -
1787731783 20.56° C 59% 1018.4 hPa 0 mm - 377 W/m² -
1787731481 20° C 59% 1018.5 hPa 0 mm - 377 W/m² -
1787731177 20.56° C 58% 1018.7 hPa 0 mm - 347 W/m² -
1787730876 19.44° C 60% 1018.7 hPa 0 mm - 330 W/m² -
1787730567 19.44° C 60% 1018.7 hPa 0 mm - 314 W/m² -
1787730266 19.44° C 61% 1018.6 hPa 0 mm - 288 W/m² -
1787729966 19.44° C 60% 1019 hPa 0 mm - 270 W/m² -
1787729661 19.44° C 61% 1018.8 hPa 0 mm - 275 W/m² -
1787729361 18.89° C 63% 1019 hPa 0 mm - 282 W/m² -
1787729056 18.33° C 65% 1018.7 hPa 0 mm - 259 W/m² -
1787728756 17.78° C 66% 1018.9 hPa 0 mm - 226 W/m² -
1787728453 17.22° C 68% 1019.3 hPa 0 mm - 213 W/m² -
1787728153 17.22° C 70% 1018.9 hPa 0 mm - 170 W/m² -
1787727848 16.67° C 71% 1018.9 hPa 0 mm - 186 W/m² -
1787727547 16.67° C 71% 1019 hPa 0 mm - 148 W/m² -
1787727245 16.67° C 71% 1019 hPa 0 mm - 117 W/m² -
1787726941 16.67° C 71% 1018.8 hPa 0 mm - 125 W/m² -
1787726636 16.11° C 73% 1019 hPa 0 mm - 112 W/m² -
1787726332 16.11° C 74% 1018.4 hPa 0 mm - 90 W/m² -

* Rain latest hour (hover to see other rain measurements)
** Current wind speed in m/s (hover to see current wind gust speed)